Preview of NWS' New Version of Forecast
This preview is not operational and should not be used for support decisions.
Latest weather observations around

EW3298 Indio (E3298)

Using English Units (Switch to International System of Units)
Date/ Time (PDT) Wind (mph) Vis. (mi) Weather Sky Cond. Temp (°F) Rel. Humidity Wind Chill (°F) Heat Index (°F) Pressure Precip. (in)
Air Dwpt 6 hour Altimeter (inHg) Sea level (inHg) 1 hr 3 hr 6 hr
Max Min
Sep 23 13:00 Calm   Clear   92 61     36%   92 29.8        
Sep 23 12:45 Calm   Clear   91 63     39%   92 29.8        
Sep 23 12:30 Calm   Clear   91 66     44%   94 29.82        
Sep 23 12:15 Calm   Clear   90 67     47%   93 29.83        
Sep 23 12:00 Calm   Clear   90 66     46%   93 29.83        
Sep 23 11:45 Calm   Clear   89 67     48%   92 29.83        
Sep 23 11:30 Calm   Clear   89 69     52%   94 29.84        
Sep 23 11:15 Calm   Clear   88 69     53%   92 29.84        
Sep 23 11:00 Calm   Clear   87 69     56%   91 29.85        
Sep 23 10:46 Calm   Clear   87 70     57%   92 29.85        
Sep 23 10:30 Calm   Clear   87 71     59%   93 29.85        
Sep 23 10:15 Calm   Clear   85 71     64%   91 29.86        
Sep 23 09:47 SW 1   Clear   84 70     64%   89 29.86        
Sep 23 09:31 Calm   Clear   83 69     63%   87 29.86        
Sep 23 09:17 Calm   Clear   82 61     50%   83 29.87        
Sep 23 09:00 Calm   Clear   81 61     50%   82 29.86        
Sep 23 08:46 Calm   Clear   80 59     48%   80 29.86        
Sep 23 08:32 Calm   Clear   80 60     50%   81 29.86        
Sep 23 08:16 Calm   Clear   78 55     45%   78 29.86        
Sep 23 07:46 Calm   Clear   75 54     48%   74 29.85        
Sep 23 07:31 Calm   Clear   74 53     48%   73 29.85        
Sep 23 07:16 Calm   Clear   74 54     49%   73 29.84        
Sep 23 07:01 Calm   Clear   73 52     48%   72 29.84        
Sep 23 06:45 Calm   Clear   73 52     47%   72 29.84        
Sep 23 06:30 Calm   Clear   73 52     48%   72 29.84        
Sep 23 06:16 Calm   Clear   72 51     48%   71 29.83        
Sep 23 06:01 Calm   Clear   72 51     48%   71 29.83        
Sep 23 05:46 Calm   Clear   72 51     48%   71 29.83        
Sep 23 05:31 Calm   Clear   72 51     48%   71 29.83        
Sep 23 05:16 Calm   Clear   72 51     48%   71 29.83        
Sep 23 05:01 Calm   Clear   72 51     48%   71 29.82        
Sep 23 04:45 Calm   Clear   72 51     48%   71 29.82        
Sep 23 04:31 Calm   Clear   73 52     47%   72 29.82        
Sep 23 04:15 Calm   Clear   74 51     44%   73 29.81        
Sep 23 04:00 Calm   Clear   74 51     44%   73 29.8        
Sep 23 03:45 Calm   Clear   74 51     44%   73 29.8        
Sep 23 03:30 Calm   Clear   76 52     43%   75 29.8        
Sep 23 03:15 Calm   Clear   77 51     40%   76 29.8        
Sep 23 03:00 Calm   Clear   77 51     40%   76 29.79        
Sep 23 02:45 Calm   Clear   77 50     39%   76 29.8        
Sep 23 02:30 Calm   Clear   79 50     37%   78 29.8        
Sep 23 02:15 Calm   Clear   81 51     35%   80 29.8        
Sep 23 02:00 Calm   Clear   81 51     35%   80 29.8        
Sep 23 01:30 Calm   Clear   80 50     35%   79 29.81        
Sep 23 01:15 Calm   Clear   80 51     36%   79 29.81        
Sep 23 01:00 Calm   Clear   80 51     36%   79 29.81        
Sep 23 00:47 Calm   Clear   80 50     35%   79 29.8        
Sep 23 00:33 Calm   Clear   81        %     29.81        
Sep 23 00:16 Calm   Clear   81 50     34%   80 29.81        
Sep 23 00:01 Calm   Clear   80 48     33%   79 29.81        
Sep 22 23:46 Calm   Clear   80 47     31%   79 29.81        
Sep 22 23:32 Calm   Clear   80 45     29%   79 29.82        
Sep 22 23:16 Calm   Clear   81 44     27%   80 29.82        
Sep 22 23:01 Calm   Clear   81 43     26%   80 29.82        
Sep 22 22:47 Calm   Clear   81 42     25%   80 29.82        
Sep 22 22:32 Calm   Clear   82 39     22%   80 29.82        
Sep 22 22:18 Calm   Clear   83 39     21%   81 29.82        
Sep 22 22:01 Calm   Clear   83 39     21%   81 29.82        
Sep 22 21:46 Calm   Clear   83 39     21%   81 29.81        
Sep 22 21:31 Calm   Clear   83 40     22%   81 29.82        
Sep 22 21:17 Calm   Clear   83 42     24%   81 29.81        
Sep 22 21:01 Calm   Clear   83 41     23%   81 29.81        
Sep 22 20:46 Calm   Clear   84 42     23%   81 29.81        
Sep 22 20:32 Calm   Clear   85 42     22%   82 29.8        
Sep 22 20:16 Calm   Clear   86 41     21%   83 29.8        
Sep 22 20:01 Calm   Clear   86 41     21%   83 29.8        
Sep 22 19:46 Calm   Clear   87 40     19%   84 29.79        
Sep 22 19:31 Calm   Clear   87 40     19%   84 29.79        
Sep 22 19:16 Calm   Clear   89 40     18%   85 29.79        
Sep 22 19:02 Calm   Clear   90 38     16%   86 29.78        
Sep 22 18:46 Calm   Clear   91 39     16%   87 29.79        
Sep 22 18:16 Calm   Clear   93 33     12%   88 29.78        
Sep 22 18:01 Calm   Clear   93 37     14%   89 29.78        
Sep 22 17:46 Calm   Clear   93 33     12%   88 29.78        
Sep 22 17:31 Calm   Clear   93 35     13%   89 29.78        
Sep 22 17:16 Calm   Clear   93 38     15%   89 29.79        
Sep 22 17:01 Calm   Clear   93 40     16%   89 29.78        
Sep 22 16:46 Calm   Clear   93        %     29.79        
Sep 22 16:32 S 3   Clear   94 36     13%   89 29.79        
Sep 22 16:16 S 1   Clear   95 34     12%   90 29.79        
Sep 22 16:01 SE 3   Clear   95 32     11%   90 29.79        
Sep 22 15:47 SE 6   Clear   95 32     11%   90 29.79        
Sep 22 15:31 SE 6   Clear   95 32     11%   90 29.8        
Sep 22 15:15 SSE 2   Clear   95 34     12%   90 29.8        
Sep 22 15:00 SE 4   Clear   95 30     10%   89 29.81        
Sep 22 14:46 ESE 5   Clear   95 32     11%   90 29.81        
Sep 22 14:30 SSE 6   Clear   94 34     12%   89 29.82        
Sep 22 14:16 SSE 3   Clear   94 31     11%   89 29.82        
Sep 22 14:01 SE 5   Clear   94 31     11%   89 29.83        
Sep 22 13:46 E 6   Clear   94 31     11%   89 29.84        
Sep 22 13:30 SSE 6   Clear   93 33     12%   88 29.84        
Sep 22 13:16 SSE 8   Clear   94 31     11%   89 29.85        
Sep 22 13:00 SSE 8   Clear   94 31     11%   89 29.85        
Sep 22 12:45 SSE 5   Clear   94 38     14%   90 29.86        
Sep 22 12:30 SSE 5   Clear   93 42     17%   89 29.87        
Sep 22 12:15 SSE 5   Clear   91 40     17%   87 29.87        
Sep 22 12:00 SE 6   Clear   91 42     18%   87 29.88        
Sep 22 11:45 E 6   Clear   91 43     19%   87 29.88        
Sep 22 11:30 WSW 4   Clear   91 42     18%   87 29.89        
Sep 22 11:00 Calm   Clear   89 35     15%   85 29.89        
Sep 22 10:45 Calm   Clear   88 38     17%   84 29.89        
Sep 22 10:30 Calm   Clear   87 37     17%   84 29.9        
Sep 22 10:15 Calm   Clear   87 37     17%   84 29.9        
Sep 22 09:47 Calm   Clear   86 38     18%   83 29.89        
Sep 22 09:32 Calm   Clear   83 39     21%   81 29.89        
Sep 22 09:16 Calm   Clear   82 38     21%   80 29.89        
Sep 22 09:01 Calm   Clear   80 39     23%   79 29.88        
Sep 22 08:46 Calm   Clear   79 38     23%   78 29.88        
Sep 22 08:31 Calm   Clear   78 38     24%   77 29.87        
Sep 22 08:17 Calm   Clear   76 38     25%   74 29.87        
Sep 22 08:01 Calm   Clear   74 38     27%   72 29.87        
Sep 22 07:46 Calm   Clear   73 39     29%   71 29.86        
Sep 22 07:31 Calm   Clear   72 39     30%   70 29.86        
Sep 22 07:15 Calm   Clear   71 38     30%   69 29.86        
Sep 22 07:00 Calm   Clear   70 38     31%     29.86        
Sep 22 06:45 Calm   Clear   70 37     30%     29.85        
Sep 22 06:30 Calm   Clear   70 37     30%     29.85        
Sep 22 06:16 Calm   Clear   70 37     30%     29.84        
Sep 22 06:01 Calm   Clear   71 38     30%   69 29.84        
Sep 22 05:45 Calm   Clear   70 36     29%     29.83        
Sep 22 05:30 Calm   Clear   71 35     27%   69 29.83        
Sep 22 05:16 Calm   Clear   71 33     25%   69 29.83        
Sep 22 04:45 Calm   Clear   73 35     25%   71 29.82        
Sep 22 04:30 Calm   Clear   75 35     23%   73 29.81        
Sep 22 04:15 Calm   Clear   75 35     23%   73 29.81        
Sep 22 04:00 Calm   Clear   76 36     23%   74 29.81        
Sep 22 03:45 Calm   Clear   76 36     23%   74 29.81        
Sep 22 03:30 W 2   Clear   76 37     24%   74 29.8        
Sep 22 03:15 Calm   Clear   76 34     22%   74 29.81        
Sep 22 03:00 Calm   Clear   77 34     21%   75 29.81        
Sep 22 02:45 Calm   Clear   77 35     22%   75 29.81        
Sep 22 02:30 W 1   Clear   77 36     23%   75 29.81        
Sep 22 02:15 WSW 3   Clear   76 37     24%   74 29.82        
Sep 22 02:00 SW 1   Clear   76 37     24%   74 29.82        
Sep 22 01:45 Calm   Clear   75 39     27%   73 29.83        
Sep 22 01:32 Calm   Clear   75 40     28%   74 29.83        
Sep 22 01:16 Calm   Clear   77 39     26%   76 29.83        
Sep 22 01:02 Calm   Clear   77 37     24%   76 29.83        
Sep 22 00:47 Calm   Clear   76 41     28%   75 29.83        
Sep 22 00:32 Calm   Clear   76 40     27%   75 29.83        
Sep 22 00:16 Calm   Clear   78 40     26%   77 29.83        
Sep 22 00:01 Calm   Clear   79 40     25%   78 29.82        
Sep 21 23:46 Calm   Clear   79 40     25%   78 29.82        
Sep 21 23:31 Calm   Clear   79 42     27%   78 29.82        
Sep 21 23:17 Calm   Clear   79 40     25%   78 29.82        
Sep 21 23:01 Calm   Clear   80 42     26%   79 29.82        
Sep 21 22:32 Calm   Clear   81 44     27%   80 29.82        
Sep 21 22:16 Calm   Clear   81 42     25%   80 29.81        
Sep 21 22:01 Calm   Clear   82 44     26%   80 29.81        
Sep 21 21:46 Calm   Clear   82 42     24%   80 29.81        
Sep 21 21:31 Calm   Clear   83 42     24%   81 29.8        
Sep 21 21:16 Calm   Clear   84 41     22%   81 29.8        
Sep 21 21:01 Calm   Clear   85 39     20%   82 29.8        
Sep 21 20:46 Calm   Clear   85 41     21%   82 29.8        
Sep 21 20:33 Calm   Clear   85 38     19%   82 29.79        
Sep 21 20:16 Calm   Clear   86 39     19%   83 29.79        
Sep 21 20:01 Calm   Clear   86 36     17%   83 29.78        
Sep 21 19:46 Calm   Clear   87 35     16%   83 29.77        
Sep 21 19:32 Calm   Clear   88 36     16%   84 29.77        
Sep 21 19:16 Calm   Clear   89 37     16%   85 29.76        
Sep 21 19:01 Calm   Clear   90 36     15%   86 29.76        
Sep 21 18:45 Calm   Clear   91 35     14%   87 29.76        
Sep 21 18:31 Calm   Clear   92 36     14%   88 29.75        
Sep 21 18:15 ESE 2   Clear   92 36     14%   88 29.75        
Sep 21 18:00 Calm   Clear   93 35     13%   89 29.75        
Sep 21 17:46 ESE 2   Clear   94 36     13%   89 29.75        
Sep 21 17:31 ESE 3   Clear   94 34     12%   89 29.75        
Sep 21 17:16 SE 1   Clear   94 34     12%   89 29.74        
Sep 21 17:01 ESE 5   Clear   95 34     12%   90 29.74        
Sep 21 16:46 ESE 6   Clear   95 34     12%   90 29.74        
Sep 21 16:31 ESE 7   Clear   95 34     12%   90 29.75        
Sep 21 16:16 ESE 8   Clear   95 34     12%   90 29.75        
Sep 21 16:00 S 2   Clear   97 38     13%   92 29.75        
Sep 21 15:45 S 5   Clear   96 33     11%   91 29.75        
Sep 21 15:16 S 1   Clear   97 34     11%   92 29.75        
Sep 21 15:00 S 2   Clear   96 33     11%   91 29.75        
Sep 21 14:45 Calm   Clear   96 33     11%   91 29.76        
Sep 21 14:30 SW 3   Clear   96 33     11%   91 29.77        
Sep 21 14:15 Calm   Clear   96 33     11%   91 29.77        
Sep 21 14:00 Calm   Clear   96 33     11%   91 29.78        
Sep 21 13:45 Calm   Clear   95 34     12%   90 29.78        
Sep 21 13:30 Calm   Clear   95 36     13%   90 29.79        
Sep 21 13:15 SSW 3   Clear   95 32     11%   90 29.79        
Sep 21 13:01 SW 1   Clear   95 34     12%   90 29.8        
Sep 21 12:45 Calm   Clear   94 31     11%   89 29.81        
Sep 21 12:30 Calm   Clear   94 31     11%   89 29.81        
Sep 21 12:15 SW 1   Clear   94 34     12%   89 29.82        
Sep 21 12:00 WSW 1   Clear   93 35     13%   89 29.82        
Sep 21 11:45 Calm   Clear   93 33     12%   88 29.83        
Sep 21 11:30 Calm   Clear   92 34     13%   88 29.83        
Sep 21 11:16 Calm   Clear   91 35     14%   87 29.84        
Sep 21 11:01 Calm   Clear   90 36     15%   86 29.84        
Sep 21 10:46 Calm   Clear   90 38     16%   86 29.85        
Sep 21 10:32 WNW 2   Clear   88 38     17%   84 29.85        
Sep 21 10:17 Calm   Clear   87 38     18%   84 29.85        
Sep 21 10:01 NW 2   Clear   86 40     20%   83 29.85        
Sep 21 09:46 Calm   Clear   85 43     23%   82 29.85        
Sep 21 09:31 WNW 1   Clear   83 42     24%   81 29.85        
Sep 21 09:00 Calm   Clear   80 47     31%   79 29.85        
Sep 21 08:45 Calm   Clear   78 48     35%   77 29.85        
Sep 21 08:30 Calm   Clear   77 48     36%   76 29.85        
Sep 21 08:16 WNW 1   Clear   75 48     38%   74 29.85        
Sep 21 08:00 Calm   Clear   74 49     41%   73 29.85        
Sep 21 07:45 Calm   Clear   73 49     42%   72 29.84        
Sep 21 07:30 Calm   Clear   73 48     41%   72 29.84        
Sep 21 07:15 Calm   Clear   72 48     43%   71 29.83        
Sep 21 07:00 Calm   Clear   72 49     44%   71 29.83        
Sep 21 06:45 Calm   Clear   72 49     44%   71 29.82        
Sep 21 06:30 Calm   Clear   72 50     46%   71 29.82        
Sep 21 06:15 Calm   Clear   71 51     50%   70 29.82        
Sep 21 06:00 Calm   Clear   71 51     50%   70 29.82        
Sep 21 05:45 Calm   Clear   72 51     48%   71 29.82        
Sep 21 05:30 Calm   Clear   72 51     47%   71 29.81        
Sep 21 05:15 Calm   Clear   73 50     45%   72 29.81        
Sep 21 05:00 Calm   Clear   72 49     45%   71 29.8        
Sep 21 04:45 Calm   Clear   73 50     44%   72 29.8        
Sep 21 04:30 Calm   Clear   73        %     29.8        
Sep 21 04:17 Calm   Clear   73 51     46%   72 29.8        
Sep 21 04:01 Calm   Clear   74 53     48%   73 29.8        
Sep 21 03:46 Calm   Clear   75 55     49%   75 29.8        
Sep 21 03:31 Calm   Clear   75 54     48%   74 29.8        
Sep 21 03:17 Calm   Clear   76        %     29.8        
Sep 21 03:02 W 1   Clear   76 54     47%   76 29.8        
Sep 21 02:47 W 1   Clear   76 54     47%   76 29.8        
Sep 21 02:31 W 5   Clear   76 54     47%   76 29.8        
Sep 21 02:16 WNW 4   Clear   76 54     47%   76 29.8        
Sep 21 01:46 WNW 4   Clear   76 54     47%   76 29.8        
Sep 21 01:31 WNW 2   Clear   77 55     47%   77 29.8        
Sep 21 01:16 WNW 1   Clear   77 55     47%   77 29.8        
Sep 21 01:01 WNW 2   Clear   77 55     46%   77 29.79        
Sep 21 00:46 WNW 1   Clear   78 55     45%   78 29.79        
Sep 21 00:31 WNW 3   Clear   78 54     44%   78 29.79        
Sep 21 00:15 WNW 4   Clear   79 55     43%   79 29.79        
Sep 21 00:00 WNW 2   Clear   79 54     42%   79 29.79        
Sep 20 23:45 NW 2   Clear   80        %     29.78        
Sep 20 23:31 WNW 1   Clear   80        %     29.78        
Sep 20 23:15 WNW 5   Clear   81        %     29.78        
Sep 20 23:01 W 2   Clear   81        %     29.78        
Sep 20 22:45 Calm   Clear   82        %     29.78        
Sep 20 22:31 Calm   Clear   82 52     35%   81 29.78        
Sep 20 22:16 W 2   Clear   83 51     33%   81 29.78        
Sep 20 22:00 Calm   Clear   83 47     28%   81 29.77        
Sep 20 21:45 Calm   Clear   84 40     21%   81 29.76        
Sep 20 21:31 Calm   Clear   84 40     21%   81 29.76        
Sep 20 21:15 Calm   Clear   83 40     22%   81 29.75        
Sep 20 21:00 Calm   Clear   83 42     24%   81 29.75        
Sep 20 20:45 Calm   Clear   83 42     24%   81 29.74        
Sep 20 20:30 Calm   Clear   84 41     22%   81 29.73        
Sep 20 20:15 Calm   Clear   85 41     21%   82 29.73        
Sep 20 20:01 Calm   Clear   86 40     20%   83 29.72        
Sep 20 19:46 Calm   Clear   86 41     21%   83 29.72        
Sep 20 19:30 Calm   Clear   87 44     22%   84 29.72        
Sep 20 19:15 Calm   Clear   89 38     17%   85 29.72        
Sep 20 19:00 Calm   Clear   90 38     16%   86 29.71        
Sep 20 18:30 Calm   Clear   91 35     14%   87 29.7        
Sep 20 18:15 Calm   Clear   92 36     14%   88 29.7        
Sep 20 18:00 Calm   Clear   93 35     13%   89 29.71        
Sep 20 17:45 Calm   Clear   93 35     13%   89 29.71        
Sep 20 17:30 Calm   Clear   94 36     13%   89 29.71        
Sep 20 17:15 Calm   Clear   94 36     13%   89 29.72        
Sep 20 17:00 Calm   Clear   94 36     13%   89 29.72        
Sep 20 16:45 Calm   Clear   94 34     12%   89 29.72        
Sep 20 16:31 Calm   Clear   94 34     12%   89 29.72        
Sep 20 16:16 Calm   Clear   94 36     13%   89 29.72        
Sep 20 16:00 Calm   Clear   94 34     12%   89 29.72        
Sep 20 15:45 Calm   Clear   94 34     12%   89 29.73        
Sep 20 15:30 Calm   Clear   94 36     13%   89 29.73        
Sep 20 15:15 Calm   Clear   94 34     12%   89 29.74        
Sep 20 15:00 Calm   Clear   94 34     12%   89 29.74        
Sep 20 14:45 Calm   Clear   93 35     13%   89 29.75        
Sep 20 14:30 Calm   Clear   92 32     12%   87 29.75        
Sep 20 14:15 Calm   Clear   92 34     13%   88 29.76        
Sep 20 14:00 Calm   Clear   92 34     13%   88 29.76        
Sep 20 13:45 Calm   Clear   92 36     14%   88 29.77        
Sep 20 13:32 Calm   Clear   91 33     13%   87 29.77        
Sep 20 13:17 Calm   Clear   91 35     14%   87 29.78        
Sep 20 13:01 Calm   Clear   90 36     15%   86 29.78        
Sep 20 12:46 Calm   Clear   90 36     15%   86 29.79        
Sep 20 12:16 W 4   Clear   89 38     17%   85 29.8        
Sep 20 12:01 Calm   Clear   88 38     17%   84 29.8        
Sep 20 11:46 Calm   Clear   87 40     19%   84 29.8        
Sep 20 11:31 Calm   Clear   87 42     21%   84 29.81        
Sep 20 11:15 Calm   Clear   86 41     21%   83 29.81        
Sep 20 11:02 NW 2   Clear   85 42     22%   82 29.82        
Sep 20 10:46 WNW 6   Clear   84 44     25%   82 29.82        
Sep 20 10:31 W 5   Clear   83 47     29%   81 29.83        
Sep 20 10:15 WNW 5   Clear   82 49     32%   81 29.82        
Sep 20 10:01 NW 6   Clear   81 49     33%   80 29.83        
May 15 01:10 WNW 8   Clear   72 50     46%   71 29.82        
Notice The following observation data may not be complete
May 14 23:55     Clear            %              
Notice The following observation data may not be complete
May 14 18:56     Clear            %              
May 14 18:10 W 4   Clear   89        %     29.73        
May 14 15:55 Calm   Clear   88 27     11%   84 29.76        
Notice The following observation data may not be complete
May 14 10:39     Clear            %              
May 14 09:56 Calm   Clear   77 47     35%   76 29.86        
May 14 09:24 W 1   Clear   75 46     36%   74 29.86        
Notice The following observation data may not be complete
May 14 07:38     Clear            %              
May 14 00:07 NW 7   Clear   69 48     48%     29.83        
May 13 23:52 NW 4   Clear   69 48     47%     29.83        
Notice The following observation data may not be complete
May 13 21:52     Clear            %              
May 13 19:07 NW 8   Clear   80 44     28%   79 29.78        
Notice The following observation data may not be complete
May 13 15:52     Clear            %              
Notice The following observation data may not be complete
May 13 14:37     Clear            %              
May 13 14:22 W 2   Clear   82 45     27%   80 29.83        
May 13 12:22 Calm   Clear   78 44     30%   77 29.89        
May 13 12:07 NW 3   Clear   78 44     30%   77 29.89        
May 13 09:06 NW 7   Clear   71 47     42%   70 29.9        
May 13 07:06 NW 6   Clear   66 48     52%     29.87        
May 13 05:06 WNW 9   Clear   64 46     51%     29.83        
May 13 02:21 NNW 10   Clear   66 46     49%     29.8        
May 13 01:20 WNW 12   Clear   67 47     48%     29.82        
May 12 20:35 NW 11   Clear   71 45     40%   70 29.78        
May 12 19:05 NW 9   Clear   75 45     34%   74 29.75        
Notice The following observation data may not be complete
May 12 18:20 NNW 10   Clear     45      %     29.75        
May 12 16:35 WNW 7   Clear   82 44     26%   80 29.74        
May 12 14:35 WNW 1   Clear   82 44     26%   80 29.77        
May 12 13:35 W 6   Clear   80 45     29%   79 29.79        
Notice The following observation data may not be complete
May 12 12:50     Clear            %              
May 12 09:49 NW 10   Clear   72 45     38%   71 29.83        
May 12 07:34 NW 6   Clear   66 46     48%     29.81        
May 12 07:04 WNW 10   Clear   64 45     50%     29.8        
May 12 06:49 WNW 7   Clear   64 45     50%     29.79        
May 12 01:18 NW 14   Clear   65 46     50%     29.68        
May 12 00:33 NW 11   Clear   66 47     50%     29.67        
May 12 00:03 NW 11   Clear   66 46     49%     29.68        
May 11 18:02 NW 9   Clear   77 48     36%   76 29.57        
May 11 16:47 WNW 10   Clear   84 46     27%   82 29.57        
May 11 15:47 NNW 9   Clear   85 48     28%   83 29.57        
May 11 10:47 Calm   Clear   81 48     32%   80 29.67        
Jun 12 04:49 WNW 5   Clear   66 46     48%     29.83        
Jun 11 22:31 NNW 12   Clear   69 47     45%     29.79        
Jun 11 21:16 NW 10   Clear   72 47     41%   71 29.75        
Jun 11 19:01 NW 9   Clear   81 47     30%   80 29.69        
Jun 11 17:00 NW 9   Clear   86 43     22%   83 29.66        
Jun 11 16:30 NW 9   Clear   87 45     23%   84 29.67        
Jun 11 16:16 NNW 8   Clear   87 46     24%   84 29.67        
Jun 11 15:16 NW 11   Clear   86 44     23%   83 29.68        
Jun 11 12:45 NW 11   Clear   83 47     28%   81 29.72        
Jun 11 11:30 NW 7   Clear   81 47     31%   80 29.72        
Jun 11 10:30 WNW 9   Clear   79 47     33%   78 29.72        
Jun 11 05:14 WNW 2   Clear   67 47     48%     29.66        
Jun 11 04:59 NW 6   Clear   68 48     48%     29.65        
Jun 11 03:44 WNW 6   Clear   69 48     48%     29.64        
Jun 11 00:13 NW 9   Clear   73 50     44%   72 29.63        
Jun 10 22:13 NNW 13   Clear   75 50     42%   74 29.63        
Jun 10 21:43 NW 11   Clear   77 51     40%   76 29.62        
Jun 10 21:13 NNW 8   Clear   78 50     38%   77 29.62        
Jun 10 19:13 NW 11   Clear   85 52     32%   83 29.6        
Jun 10 18:28 NW 8   Clear   88 51     28%   85 29.59        
Jun 10 17:43 NW 16   Clear   90 47     23%   87 29.59        
Jun 10 16:43 WNW 5   Clear   94 41     16%   90 29.59        
Jun 10 14:43 WNW 2   Clear   94 41     16%   90 29.63        
Jun 10 10:14 W 4   Clear   85 47     27%   83 29.7        
Jun 10 09:12 WNW 7   Clear   83 47     28%   81 29.7        
Jun 09 21:56 NW 8   Clear   82 52     36%   81 29.67        
Jun 09 17:11 NW 2   Clear   99 51     20%   96 29.62        
Jun 09 14:25 Calm   Clear   99 40     13%   94 29.68        
Jun 09 13:55 WNW 4   Clear   99 40     13%   94 29.68        
Jun 09 07:39 W 2   Clear   79 50     37%   78 29.75        
Jun 09 02:54 WNW 9   Clear   80 42     26%   79 29.73        
Jun 09 00:39 NW 3   Clear   83 32     16%   80 29.73        
Jun 08 15:23 W 5   Clear   101 41     13%   96 29.72        
Jun 08 14:38 Calm   Clear   99 45     16%   95 29.74        
Jun 08 13:23 NW 1   Clear   95 45     18%   91 29.78        
Jun 08 12:07 Calm   Clear   91 51     26%   88 29.83        
Jun 08 08:07 Calm   Clear   77 55     47%   77 29.85        
Jun 08 07:52 Calm   Clear   76 55     48%   76 29.84        
Jun 08 06:52 Calm   Clear   74 56     54%   74 29.81        
Jun 08 05:36 WNW 2   Clear   73 55     53%   72 29.79        
Jun 08 03:51 W 10   Clear   75 55     49%   75 29.77        
Jun 08 02:36 WNW 9   Clear   77 54     45%   77 29.76        
Jun 07 23:51 WNW 7   Clear   82 54     38%   81 29.75        
Jun 07 22:51 WNW 6   Clear   84 56     38%   83 29.75        
Jun 07 20:06 Calm   Clear   95 43     17%   91 29.7        
Jun 07 15:50 SE 3   Clear   97 42     15%   93 29.73        
Jun 07 12:20 Calm   Clear   91 49     24%   88 29.81        
Jun 07 12:05 ESE 1   Clear   91 50     25%   88 29.82        
Jun 07 09:19 Calm   Clear   83 58     42%   83 29.83        
Notice The following observation data may not be complete
Jun 07 09:04 Calm   Clear     58      %     29.83        
Jun 06 07:32 Calm   Clear   81 55     41%   81 29.8        
Jun 06 07:17 Calm   Clear   81 55     41%   81 29.8        
Jun 06 07:02 Calm   Clear   80 55     42%   80 29.79        
Jun 05 23:46 Calm   Clear   87 55     34%   85 29.73        
Jun 05 22:46 Calm   Clear   90 53     29%   88 29.72        
Jun 05 20:46 Calm   Clear   97 54     24%   95 29.67        
Jun 05 20:31 Calm   Clear   98 55     24%   96 29.66        
Jun 05 15:46 S 7   Clear   102 46     15%   98 29.66        
Jun 05 15:01 Calm   Clear   103 46     15%   99 29.67        
Jun 05 14:46 SW 5   Clear   103 46     15%   99 29.67